Back to catalog

THE ARAB SATELLITE 813

AliveCommunicationsSSO
NORAD 66994·PAYLOAD·🇨🇳 China

Launched Dec 10, 2025 from Jiuquan Satellite Launch Center

Loading…

Next Passes (next 24 hours)

TLE

FreshSource: Space-Track

Epoch: Sep 14, 2026, 03:29 UTC

1 66994U 25292B   26257.14569173  .00003577  00000-0  24165-3 0  9995
2 66994  97.6266 332.1168 0015718  60.4904 299.7889 15.07128673 41840

Track THE ARAB SATELLITE 813 in real time with AllMySat

Download on the App Store